Theta_e
311 311 310 312 311 311 311 310 310 312 313 313 313 313 313 315 316 314 315 312 315 322 323 321 322 324 324 325 327 327 326 328 328 331 331 331 331 332 333 333 334 334 335 335 335 336 336 335 336 340 343 340 340 340
310 310 310 310 310 310 311 310 309 310 313 313 313 313 313 313 315 313 317 313 311 317 322 318 318 319 320 321 323 323 327 329 329 331 331 332 333 332 333 332 332 332 333 337 335 338 334 331 335 336 334 334 333 333
308 309 309 309 310 310 310 309 309 310 312 313 313 312 312 312 313 312 314 312 315 320 323 322 323 319 318 318 319 324 325 325 326 326 328 328 331 330 331 331 330 330 330 330 330 328 329 328 329 331 331 330 329 328
308 308 308 309 310 309 309 308 308 309 312 313 313 312 312 312 312 312 313 313 316 319 325 324 318 321 318 317 319 319 320 321 323 325 326 327 328 326 326 328 329 326 329 328 328 328 326 325 326 326 328 327 327 326
306 307 308 309 308 307 307 307 308 309 311 313 312 312 312 312 312 312 313 314 313 318 324 322 320 318 316 316 317 317 318 322 325 326 327 327 326 325 325 327 327 325 326 327 327 326 327 328 326 326 326 327 327 328
306 307 308 307 306 306 306 306 307 308 310 312 312 312 312 312 312 313 320 314 313 313 319 322 319 319 316 319 319 319 320 322 323 325 326 326 325 325 327 329 328 326 326 326 327 326 326 326 326 326 328 328 327 327
306 306 305 305 305 305 305 306 307 308 309 311 312 311 312 312 313 317 318 315 313 313 318 321 322 318 318 320 320 321 321 323 325 326 327 326 326 325 327 329 327 327 326 326 327 327 328 328 329 327 327 326 325 326
305 304 304 304 304 304 304 306 307 309 310 311 311 311 312 311 312 314 314 311 310 312 314 322 323 320 319 325 326 323 324 323 325 325 326 327 327 327 329 327 327 326 326 327 328 328 327 327 327 327 326 327 327 327
303 303 303 303 304 303 304 306 307 309 311 311 312 312 311 311 315 316 311 312 311 313 321 321 323 323 318 322 325 327 326 327 326 328 327 327 327 330 328 328 328 327 327 327 327 327 327 327 327 327 327 327 328 328
303 303 303 303 302 303 304 306 307 309 310 312 312 314 318 315 313 313 315 317 316 316 318 321 319 321 319 321 325 328 328 328 330 329 328 329 328 326 328 330 329 328 327 328 328 329 328 328 327 327 328 327 327 327
302 302 303 302 302 303 304 306 308 311 312 312 315 316 315 314 317 318 320 319 319 318 319 319 319 321 319 323 323 327 330 327 328 329 327 327 328 331 330 329 328 328 328 328 327 327 327 327 328 328 328 328 327 326
302 302 302 302 302 303 304 306 309 311 311 312 311 311 313 317 319 320 320 320 319 320 321 322 323 321 322 320 324 327 328 326 327 326 327 328 334 331 329 329 328 328 328 328 326 327 327 327 327 327 328 327 327 327
301 301 301 301 302 303 304 306 310 311 310 309 312 314 318 319 322 320 320 321 320 322 322 323 326 324 323 323 326 326 327 326 325 327 328 329 333 330 330 329 328 327 327 327 327 326 326 327 326 326 327 327 326 326
300 300 301 301 302 303 304 306 310 310 312 313 314 314 320 321 320 320 320 320 320 323 323 323 327 328 328 328 327 327 326 326 328 329 329 334 331 330 330 329 328 328 327 327 327 327 327 327 326 325 325 325 325 325
301 300 301 301 302 303 304 306 309 311 309 312 313 320 320 319 318 318 318 319 319 318 318 323 325 324 325 325 326 327 328 328 328 329 333 328 329 328 328 327 328 328 328 328 327 327 326 325 325 324 325 324 325 326
301 301 302 302 302 303 304 307 309 310 309 311 313 317 318 319 319 319 319 319 318 317 318 322 324 324 324 325 327 328 327 328 330 328 326 327 328 328 329 329 329 328 327 327 326 325 325 325 324 325 324 323 323 325
301 303 303 302 302 303 304 308 309 310 311 312 313 314 318 319 319 318 318 318 318 320 324 322 323 322 323 326 326 327 328 329 327 326 325 327 329 329 329 329 328 326 326 327 325 324 324 323 324 323 324 323 322 323
303 305 303 304 303 305 305 307 310 311 313 312 315 318 317 318 318 318 318 318 318 319 322 323 323 323 323 324 325 327 327 327 324 323 323 324 328 328 328 329 327 326 326 325 324 323 322 322 322 321 321 322 322 324
304 304 303 305 305 307 308 308 309 312 312 313 315 316 317 317 317 317 317 317 317 318 319 321 323 323 322 321 321 321 322 322 322 321 321 321 324 326 328 327 326 326 326 325 323 323 322 321 321 321 320 319 325 327
303 303 305 306 306 308 310 310 308 311 315 315 315 316 317 317 317 317 317 317 317 318 318 319 320 321 321 321 321 321 322 322 321 320 320 320 321 324 326 326 326 325 324 322 323 320 319 319 319 319 318 317 320 320
304 305 306 306 306 308 310 310 311 312 313 314 315 316 317 317 317 317 318 317 318 318 319 318 318 318 318 318 318 320 320 321 321 319 319 321 321 325 326 325 325 323 322 323 319 319 318 317 317 317 317 316 316 317
305 306 308 308 308 309 311 310 312 312 311 314 316 315 317 317 318 318 317 318 317 317 317 317 317 317 318 319 318 318 317 316 317 319 318 321 327 328 327 324 322 323 322 319 319 319 318 316 315 315 316 316 316 314
307 308 307 308 310 309 311 312 313 313 314 315 316 317 318 318 318 317 319 319 318 318 318 318 319 317 319 317 317 317 317 319 319 318 321 325 326 326 323 322 322 322 321 319 318 319 318 316 315 315 316 316 315 314
306 307 309 310 310 311 312 312 312 314 314 315 316 318 320 322 321 322 324 325 325 323 323 323 323 324 322 320 320 319 318 318 319 322 325 325 324 322 322 321 320 319 319 318 317 317 317 317 317 318 318 317 314 313
307 308 309 309 310 312 312 313 313 314 316 317 319 320 321 320 323 325 326 326 327 325 325 326 323 319 323 321 321 324 324 323 324 328 325 321 320 321 321 320 320 320 318 318 318 316 315 314 313 313 314 314 313 311
311 310 310 312 312 313 314 317 316 317 318 318 320 320 322 324 323 324 325 325 322 323 325 324 326 326 325 326 326 325 323 322 321 322 322 319 318 320 320 320 320 319 318 318 318 316 314 313 313 312 310 308 308 309
311 313 313 312 313 314 316 317 317 317 319 321 321 322 322 321 317 319 321 320 322 323 322 322 324 324 324 321 320 318 319 319 318 318 320 319 318 318 318 318 318 318 318 317 317 316 314 313 313 313 312 311 310 310
312 315 316 315 315 314 316 319 320 321 321 321 322 322 320 320 325 321 321 321 323 321 321 320 321 321 321 319 320 320 321 321 321 320 319 318 318 318 317 317 317 317 317 317 316 316 315 314 313 313 313 312 312 311
314 314 316 316 315 317 319 320 320 319 318 318 321 325 325 323 323 323 322 323 323 322 322 322 321 321 321 321 321 320 320 319 319 320 319 319 318 318 317 317 317 318 316 316 315 315 315 315 314 313 313 313 312 312
316 315 318 318 319 320 320 318 318 317 318 320 323 324 325 325 323 324 323 324 323 322 321 319 320 320 320 320 320 320 320 319 318 318 319 319 318 317 317 317 317 317 316 315 315 313 312 314 314 315 314 314 314 313
315 316 317 318 319 320 321 319 318 319 323 324 324 325 325 324 323 323 324 324 324 322 321 320 319 319 319 319 319 319 320 318 318 318 318 318 318 318 319 318 317 317 317 317 316 316 316 316 316 316 315 314 314 313
317 319 319 320 322 322 321 322 324 325 327 327 327 326 325 325 324 325 323 323 323 322 322 321 321 320 320 320 320 320 319 320 319 319 318 317 318 318 318 318 319 317 318 316 316 318 317 317 317 317 317 316 315 314
318 319 320 321 324 325 324 325 325 324 326 326 325 324 324 324 325 325 324 322 323 324 324 324 323 322 323 322 322 320 319 318 318 318 317 317 317 318 319 319 319 318 317 318 318 316 316 318 316 316 317 317 316 314
Wind_Speed
15 20 17 14 13 14 14 16 14 10 7 8 11 13 16 14 14 9 3 9 6 3 4 3 2 4 3 4 5 4 5 5 5 5 4 3 5 3 5 2 3 5 5 6 6 8 11 6 3 6 5 3 4 4
17 18 15 13 13 13 13 14 13 11 6 5 7 11 13 13 13 9 3 6 6 6 5 4 11 13 12 9 7 3 5 2 4 3 2 2 5 3 4 5 4 5 4 6 3 5 3 4 5 1 2 1 3 5
19 15 14 14 12 13 12 14 12 9 8 4 4 8 10 11 13 10 6 8 4 3 5 4 3 2 2 13 11 4 3 3 3 4 4 3 6 3 7 5 6 5 4 7 5 4 2 8 5 5 5 5 8 10
14 14 14 13 12 12 12 13 10 8 8 4 5 7 9 10 11 11 5 6 4 4 4 3 3 4 4 7 11 15 9 4 4 4 4 4 5 1 4 5 7 7 2 6 11 13 12 11 7 9 9 11 14 14
13 12 12 12 11 11 13 10 9 7 7 6 6 7 9 9 10 8 2 1 3 6 4 6 13 2 3 3 8 13 14 10 4 4 5 5 2 3 6 5 10 8 8 9 9 8 8 12 13 8 12 14 11 11
11 12 11 11 11 13 11 9 8 8 8 7 7 7 8 8 9 3 4 2 1 4 4 3 3 4 3 6 7 9 10 7 6 4 4 3 2 5 5 8 4 4 5 9 13 14 14 13 13 13 11 10 13 15
12 11 10 12 12 10 9 9 7 6 7 7 6 7 8 8 5 4 4 2 2 4 3 4 2 4 2 3 4 5 7 4 6 5 5 7 6 4 8 12 14 14 11 5 6 6 9 10 7 10 13 16 17 19
11 10 12 11 9 8 6 6 5 5 6 5 6 7 7 9 8 4 1 2 5 4 3 4 3 3 2 2 4 3 5 5 6 6 3 6 3 5 6 8 4 3 3 6 5 5 8 11 13 14 16 15 16 17
11 11 9 8 9 8 6 6 5 5 5 5 6 6 4 3 4 2 1 2 4 3 3 3 3 2 2 2 1 4 3 5 3 6 7 3 7 6 5 8 6 4 6 10 5 9 11 13 14 15 16 17 18 18
11 10 10 10 8 7 7 7 6 4 5 4 2 4 3 3 3 4 2 4 4 3 4 4 1 3 3 0 2 2 3 4 3 3 1 5 8 7 5 5 5 7 7 6 9 12 14 16 16 17 18 17 17 17
11 12 10 9 8 7 7 8 7 6 4 2 3 1 3 4 4 3 3 3 3 3 4 4 5 4 3 4 2 0 2 1 3 4 3 3 3 5 3 2 2 2 4 8 10 13 15 17 17 18 18 18 20 24
9 8 8 8 8 7 8 10 9 8 3 2 1 1 2 3 3 4 3 3 4 4 5 4 3 4 1 2 4 3 3 3 3 2 3 3 4 3 1 3 5 6 7 10 14 14 17 18 20 18 18 18 24 26
8 8 7 8 8 8 9 10 8 10 3 1 2 3 3 3 2 6 6 4 3 4 5 6 5 3 4 4 3 3 4 3 1 4 3 2 5 2 4 4 7 9 10 14 16 19 20 20 21 21 20 25 25 25
8 8 8 6 8 8 9 11 8 9 3 2 3 2 5 5 5 5 5 1 3 2 1 3 2 3 3 3 3 4 1 3 3 4 3 5 5 5 6 7 9 12 14 16 16 17 18 18 19 22 22 23 22 21
8 7 8 8 9 8 10 11 9 9 4 3 3 4 7 5 2 2 3 3 4 2 3 2 3 3 3 3 3 2 3 4 4 1 3 4 7 7 7 9 12 13 13 13 16 15 16 20 20 22 23 23 24 22
7 6 11 11 11 10 10 9 10 6 2 2 3 4 5 5 7 6 5 5 3 2 2 4 3 3 5 3 5 6 3 5 1 2 3 3 6 7 8 10 11 12 14 16 16 17 19 20 20 22 25 22 22 21
6 4 3 8 13 10 12 7 4 4 3 4 4 7 8 4 4 3 4 4 4 4 5 3 5 6 0 4 4 4 3 2 3 3 3 5 6 8 9 10 11 14 14 14 17 18 19 22 23 20 14 21 23 21
7 3 6 6 16 11 8 5 4 3 4 3 4 8 7 6 6 5 4 4 4 6 5 4 3 5 5 5 4 1 2 1 4 5 5 7 7 9 11 9 12 12 13 15 16 18 18 20 15 12 21 24 22 13
6 6 6 11 17 5 5 5 4 3 5 4 9 6 5 7 6 8 5 5 8 4 3 3 6 7 9 8 8 7 4 4 4 5 6 7 5 10 13 11 12 11 14 15 15 16 15 17 16 19 20 20 11 10
10 10 9 14 20 4 4 3 4 3 4 5 7 8 8 8 7 8 9 9 9 8 8 7 11 10 8 6 4 6 4 2 4 7 8 7 11 13 10 11 11 11 13 14 16 17 16 14 15 16 18 17 13 12
9 10 9 21 12 4 2 3 4 3 3 4 6 7 6 7 9 9 10 8 8 10 12 13 13 12 15 16 16 13 8 6 7 8 8 8 12 10 10 10 9 8 10 14 10 13 16 15 17 17 16 18 17 14
5 10 5 6 3 4 2 6 2 1 2 4 3 5 6 9 9 9 6 7 9 11 12 12 11 11 11 13 14 19 19 17 14 12 9 8 5 5 5 6 8 9 10 9 10 12 16 19 22 19 19 17 19 22
9 5 4 3 3 3 3 6 3 4 3 3 3 4 4 4 3 3 4 6 6 7 10 11 12 16 13 16 13 14 14 13 10 8 7 4 1 1 2 8 9 8 8 10 10 11 14 20 23 22 21 22 23 24
5 1 2 4 4 4 4 3 2 3 3 3 3 4 4 3 4 3 4 4 5 4 2 5 7 6 5 7 7 7 10 11 7 5 4 6 5 5 6 9 11 12 11 11 13 13 13 13 14 18 21 23 26 26
2 3 3 3 3 3 4 3 4 4 4 8 4 2 2 1 3 4 5 1 1 0 2 4 2 2 4 5 4 5 4 7 9 7 7 9 9 9 10 10 10 7 10 10 12 13 13 15 18 19 19 20 20 23
4 6 4 7 5 4 5 3 6 6 2 2 4 4 4 3 2 3 3 3 2 2 2 3 2 4 3 7 7 7 12 14 15 11 9 6 9 10 8 6 6 8 6 9 10 12 15 16 16 17 20 21 21 22
3 5 5 4 3 3 3 2 1 2 5 5 3 1 2 1 2 2 2 2 2 5 9 5 9 8 10 14 15 13 8 9 10 14 11 7 8 8 9 9 9 8 7 8 11 11 13 15 17 18 19 20 21 22
3 1 3 6 3 1 3 3 4 3 2 3 3 1 2 4 2 2 2 1 4 12 18 21 19 17 14 18 15 11 9 11 11 11 10 9 9 8 11 11 9 6 8 8 8 11 12 13 14 15 16 17 17 17
2 3 2 2 4 5 3 2 2 2 2 0 2 2 4 4 7 3 4 4 3 1 14 16 14 10 7 7 7 8 12 11 12 9 11 8 8 9 9 9 7 6 8 8 8 9 9 10 10 11 11 12 11 11
2 3 2 2 2 0 1 2 2 3 3 5 3 1 3 4 5 2 1 2 4 8 11 16 19 18 14 12 11 10 8 6 9 9 6 6 10 12 10 9 8 8 9 9 10 9 8 8 7 6 5 6 6 8
1 0 2 2 2 1 2 4 7 5 3 2 3 2 4 4 3 2 3 3 1 4 8 10 8 9 11 10 11 10 9 8 5 2 1 4 10 10 9 10 9 7 7 7 7 7 6 4 6 6 7 8 5 4
0 1 1 2 2 1 2 2 1 2 5 4 3 3 3 3 3 2 5 3 4 6 2 2 6 7 4 5 5 4 4 6 9 7 6 4 3 7 11 10 6 9 8 10 6 2 4 1 2 3 4 5 5 4
2 3 4 3 3 2 2 2 2 3 3 4 4 3 3 2 3 3 4 6 3 2 0 1 1 3 4 3 5 8 9 11 12 9 4 1 6 6 7 9 11 11 10 9 11 11 7 6 7 6 4 2 3 3
Wind_Direction
295 306 295 290 291 296 301 316 322 321 324 341 360 356 355 7 12 20 356 10 356 312 293 237 233 250 243 252 280 55 256 194 238 245 267 200 259 163 257 299 264 252 247 222 243 267 248 29 227 306 47 75 13 5
295 290 288 288 288 289 293 307 315 320 309 322 357 353 348 355 6 18 331 344 327 254 333 277 272 269 263 278 291 225 336 311 349 272 228 298 228 210 311 259 179 252 288 330 287 37 70 350 325 23 336 360 7 326
282 276 279 282 282 284 288 298 302 307 302 290 346 346 339 343 351 4 328 333 299 269 247 239 172 117 181 227 238 274 179 328 238 341 321 319 264 286 262 247 286 218 233 252 302 179 314 326 310 277 258 295 313 305
268 273 277 274 275 281 287 292 291 294 304 275 320 333 331 331 340 353 336 329 312 295 288 102 155 287 266 247 226 227 286 269 279 248 254 268 273 151 285 318 281 297 324 276 272 269 281 283 300 283 281 291 296 294
270 269 266 262 272 285 288 281 277 274 287 278 295 316 322 322 332 339 304 325 359 325 325 304 311 158 238 232 239 236 238 231 226 222 234 249 302 271 248 288 265 258 251 266 283 323 298 296 294 284 301 298 294 296
259 256 259 266 276 280 278 275 271 265 265 271 283 303 311 314 334 298 210 178 68 350 285 294 40 206 256 284 237 208 208 214 235 244 252 253 271 259 264 262 304 258 262 275 285 292 294 292 294 289 288 305 305 303
248 249 258 274 276 271 270 273 268 254 260 260 276 293 300 304 321 283 354 56 259 327 273 284 255 132 286 225 154 174 189 201 233 230 242 260 251 196 265 269 280 282 298 307 296 283 265 256 299 316 301 295 296 293
245 256 270 261 260 269 268 272 264 245 247 255 272 287 293 296 298 246 201 246 223 267 254 273 270 231 1 211 174 178 182 204 200 246 230 251 172 234 265 276 306 270 248 258 272 268 285 298 293 292 297 299 294 291
247 257 257 255 255 259 243 232 243 242 236 261 275 286 286 223 219 104 76 157 188 278 287 240 274 77 342 206 238 184 228 222 128 240 236 260 245 223 265 300 271 263 274 304 306 290 294 298 303 299 295 296 294 295
247 250 254 259 249 246 226 223 222 220 242 263 268 225 195 129 175 149 178 198 198 201 224 255 303 248 300 247 197 256 202 256 251 160 109 237 258 282 333 324 297 284 286 290 295 303 310 303 303 302 297 296 292 296
243 246 239 241 236 235 221 203 211 212 206 214 215 225 81 150 209 218 229 229 156 234 220 236 249 258 147 275 266 212 293 221 256 118 262 223 220 116 97 99 15 317 285 286 292 294 297 297 298 301 301 299 297 291
227 224 229 234 229 225 213 200 192 202 199 215 248 208 177 221 218 236 215 175 215 244 180 221 167 218 172 253 247 184 251 201 257 87 239 244 109 89 11 10 339 317 298 297 301 301 298 296 301 303 301 302 302 298
226 226 232 228 222 217 210 200 200 207 175 186 226 232 202 161 231 222 198 192 209 200 195 192 191 220 175 232 240 230 226 231 72 227 239 42 79 26 2 356 335 319 301 300 301 302 303 303 305 306 305 301 305 297
220 226 232 232 216 210 203 197 196 186 182 202 169 254 225 190 230 209 225 204 110 206 139 266 239 229 192 192 249 243 179 244 241 234 218 91 16 349 342 335 311 314 313 309 309 308 308 311 311 312 309 302 293 287
223 223 225 222 217 208 197 193 188 175 160 198 198 226 221 245 275 247 255 218 182 234 282 258 236 251 179 241 221 237 209 250 240 239 67 35 3 347 327 319 318 315 317 315 318 315 319 316 319 312 312 308 301 296
221 236 235 220 202 204 190 179 176 175 194 223 245 253 236 253 236 214 225 235 172 206 247 224 260 229 226 238 207 204 241 216 105 85 57 28 2 341 329 321 319 320 319 318 319 324 320 325 315 307 309 303 301 301
192 233 243 195 188 181 179 155 159 193 217 208 230 241 267 303 294 322 251 223 160 204 232 209 225 209 73 237 222 211 265 77 59 66 39 23 337 323 319 321 323 325 324 326 329 327 330 321 321 314 304 309 304 297
217 221 192 163 165 157 180 207 191 210 222 208 230 218 216 249 262 253 231 205 224 227 231 245 298 224 228 234 249 328 77 46 26 12 351 349 336 328 324 317 324 322 325 329 332 330 335 332 324 319 316 315 309 300
219 218 208 184 169 166 164 186 208 222 217 233 236 260 246 248 241 256 266 231 235 259 261 241 247 239 241 252 276 282 250 232 293 331 322 322 326 325 321 318 314 324 329 330 337 341 341 324 324 325 335 335 340 357
243 234 216 197 183 172 177 166 181 239 227 216 230 242 235 248 250 240 239 232 224 218 216 227 241 250 253 259 274 293 315 68 302 307 317 328 332 326 327 320 333 332 336 344 357 354 344 345 353 353 356 354 360 12
238 232 211 178 198 244 246 166 203 231 265 245 242 228 247 227 237 237 236 226 219 224 238 243 252 255 258 266 264 244 260 244 279 298 303 310 326 319 313 350 341 349 5 21 6 357 360 1 354 6 12 23 18 28
165 179 128 152 182 189 249 215 237 183 249 274 261 220 257 239 233 240 238 226 234 238 237 250 256 257 251 244 247 248 258 269 268 270 257 279 298 307 5 352 5 34 42 38 18 21 13 19 20 21 23 25 40 44
137 122 117 142 187 183 268 162 192 185 245 257 230 233 222 223 217 140 226 224 247 246 248 249 252 256 260 259 251 249 244 243 249 260 267 253 284 80 28 50 55 57 63 60 50 34 53 43 42 36 37 46 51 49
101 110 169 183 208 204 159 190 229 206 211 240 240 247 219 215 141 226 250 229 216 204 187 258 245 246 213 221 216 206 209 214 222 224 183 163 145 86 81 90 84 73 67 58 61 58 43 50 56 55 55 62 59 56
140 208 183 213 201 225 200 200 196 217 234 219 245 259 260 129 213 229 235 174 146 276 252 238 145 342 250 177 151 122 192 185 162 133 134 115 110 119 108 98 85 69 76 63 58 60 63 58 57 60 67 71 74 79
219 187 211 189 163 215 204 223 205 216 261 267 209 211 214 225 292 294 343 8 321 299 297 249 230 183 182 150 142 119 108 121 131 120 100 122 132 129 130 125 113 92 60 73 67 63 68 73 67 68 77 77 76 75
218 193 190 213 223 220 250 214 97 209 229 213 236 23 37 70 268 263 264 238 267 60 42 72 155 116 123 122 118 125 125 142 129 121 127 125 121 128 135 118 101 90 82 74 75 80 79 76 77 76 74 73 76 80
270 287 215 169 189 115 253 239 211 226 290 9 350 159 217 218 39 243 234 172 108 89 83 78 112 130 120 127 135 136 141 132 128 123 120 121 132 126 116 114 106 97 80 67 75 93 96 90 84 79 77 78 78 77
245 202 249 170 212 216 233 308 39 24 63 224 254 332 70 92 150 126 153 131 78 87 121 132 145 157 152 141 136 141 140 146 145 149 126 126 135 144 146 140 148 127 112 109 87 95 92 92 89 90 88 86 83 80
177 188 263 275 245 92 82 198 214 224 215 242 296 266 136 141 136 119 102 45 61 70 97 119 135 139 147 150 150 152 167 181 179 165 162 151 142 149 156 152 141 131 130 132 131 128 126 119 126 112 96 96 94 99
15 287 276 299 290 261 183 220 234 233 233 208 185 183 126 128 133 65 5 356 50 138 123 116 127 126 129 135 138 159 153 171 169 162 109 133 144 162 171 165 159 164 155 148 155 158 146 138 102 104 84 74 72 55
35 294 317 299 294 334 242 237 265 184 161 156 151 161 151 152 137 103 18 345 196 180 100 125 143 131 129 111 113 103 48 135 169 185 196 218 215 177 182 191 169 186 177 160 232 286 182 128 40 100 121 108 98 98
224 212 219 235 225 225 177 256 186 135 139 138 122 138 130 97 95 80 61 39 35 355 299 241 82 90 112 114 95 101 107 92 79 72 56 330 265 238 212 185 189 193 192 211 198 185 234 248 208 239 214 218 140 139